This demonstration page uses our WeatherBlox Daily Observations layout. Learn more.

Left ArrowRight Arrow

Hourly Observations for June 4, 2019

Temp ( °F °C ) Dew Point ( °F °C ) Humidity (%) Winds ( mph kmh ) Pressure ( in mb ) Visibility ( mi km ) Precip ( " mm )
12:53 am 00:53 Clear 60 15.6 41 5 50 50 WSW 7 11 29.71 1006 10 16 0.00 0.00
1:53 am 01:53 Clear 62 16.7 44 6.7 52 52 N 8 13 29.76 1008 10 16 0.00 0.00
2:53 am 02:53 Clear 61 16.1 46 7.8 58 58 NNW 10 17 29.83 1010 10 16 0.00 0.00
3:53 am 03:53 Clear 53 11.7 43 6.1 69 69 WSW 5 7 29.88 1012 10 16 0.00 0.00
4:53 am 04:53 Partly Cloudy 51 10.6 43 6.1 74 74 W 5 7 29.91 1013 10 16 0.00 0.00
5:53 am 05:53 Sunny 47 8.3 42 5.6 83 83 W 5 7 29.96 1015 10 16 0.00 0.00
6:53 am 06:53 Sunny 53 11.7 46 7.8 77 77 SSW 3 6 29.96 1015 10 16 0.00 0.00
7:53 am 07:53 Cloudy 56 13.3 46 7.8 70 70 Calm 29.97 1015 10 16 0.00 0.00
8:53 am 08:53 Sunny 61 16.1 45 7.2 56 56 Calm 29.98 1015 10 16 0.00 0.00
9:53 am 09:53 Sunny 67 19.4 40 4.4 37 37 VRB 3 6 29.97 1015 10 16 0.00 0.00
10:53 am 10:53 Sunny 68 20 39 3.9 35 35 VRB 5 7 29.97 1015 10 16 0.00 0.00
11:53 am 11:53 Sunny 70 21.1 39 3.9 32 32 VRB 6 9 29.96 1014 N/A 0.00 0.00
12:53 pm 12:53 Sunny 74 23.3 44 6.7 34 34 undefined N/A 29.93 1014 10 16 0.00 0.00
1:53 pm 13:53 Sunny N/A N/A N/A S 10 17 N/A 10 16 0.00 0.00
2:53 pm 14:53 Sunny 77 25 43 6.1 30 30 SW 15 24 29.86 1011 10 16 0.00 0.00
3:53 pm 15:53 Sunny 79 26.1 39 3.9 24 24 SSW 15 24 29.85 1011 10 16 0.00 0.00
4:53 pm 16:53 Sunny 78 25.6 38 3.3 24 24 SSW 8 13 29.83 1010 10 16 0.00 0.00
5:53 pm 17:53 Sunny 79 26.1 39 3.9 24 24 SW 10 17 29.82 1010 10 16 0.00 0.00
6:53 pm 18:53 Sunny 78 25.6 38 3.3 24 24 SW 13 20 29.80 1009 10 16 0.00 0.00
7:53 pm 19:53 Sunny 72 22.2 43 6.1 35 35 SSW 6 9 29.79 1009 10 16 0.00 0.00
8:53 pm 20:53 Sunny 66 18.9 45 7.2 47 47 SSE 8 13 29.79 1009 10 16 0.00 0.00
9:53 pm 21:53 Clear 64 17.8 43 6.1 46 46 S 9 15 29.80 1009 10 16 0.00 0.00
10:53 pm 22:53 Clear 58 14.4 41 5 53 53 WSW 7 11 29.82 1010 10 16 0.00 0.00
11:53 pm 23:53 Clear 57 13.9 42 5.6 58 58 WSW 8 13 29.83 1010 10 16 0.00 0.00

Powered by AerisWeather